Wind_Speed
29 29 26 25 24 23 23 23 21 18 16 16 15 15 15 15 16 14 12 12 11 8 8 8 8 8 8 8 5 4 4 4 5 5 5 6 7 6 6 7 7 7 7 7
30 27 25 27 27 26 25 24 22 19 18 17 16 16 16 17 17 16 15 14 12 10 9 9 9 9 9 7 6 5 5 5 6 6 6 7 8 8 7 7 7 8 8 8
29 26 28 28 28 27 27 25 22 20 20 19 19 19 19 19 19 18 16 14 12 12 10 10 11 10 10 9 8 7 6 5 6 7 7 7 7 8 8 8 8 9 9 9
30 30 30 30 28 27 26 25 23 23 22 21 21 22 21 20 21 19 17 14 13 13 12 10 11 11 11 11 9 8 7 7 7 7 6 6 6 7 8 8 9 9 9 10
30 30 30 29 28 27 26 25 25 25 25 25 24 24 22 22 22 19 18 17 15 14 13 12 12 11 11 11 9 8 8 7 8 8 7 7 7 8 8 9 9 10 10 11
30 31 31 29 28 28 27 28 28 28 28 29 26 26 25 23 21 19 18 19 18 16 15 14 13 12 11 11 10 9 8 9 9 8 8 8 8 8 8 9 10 11 11 12
31 32 30 30 30 29 30 31 31 31 31 29 27 28 25 22 21 20 19 19 18 16 16 15 13 12 11 10 10 10 10 10 10 10 9 9 8 8 9 9 10 10 11 12
31 31 31 30 30 30 30 32 33 32 32 29 27 28 25 22 21 21 19 16 16 15 14 13 13 13 12 11 11 10 10 11 11 11 11 11 10 10 10 10 10 11 12 12
30 29 30 30 29 29 30 32 32 32 31 30 28 27 25 23 21 20 18 16 15 14 12 13 12 12 11 11 10 11 11 11 11 12 11 11 11 10 11 11 11 11 11 11
29 29 29 30 30 30 30 30 32 33 32 30 29 27 24 22 21 20 18 16 15 14 12 12 12 12 12 11 11 11 12 12 12 13 12 11 11 11 12 12 12 12 12 12
29 30 30 31 31 29 30 32 32 33 32 31 29 26 23 22 20 19 18 17 16 15 13 12 12 13 12 12 11 11 12 13 13 13 13 12 12 12 12 12 13 13 13 13
28 29 30 30 29 28 29 31 32 33 32 31 30 26 23 21 20 20 19 16 13 13 13 13 14 14 13 12 11 12 13 14 14 14 13 13 12 13 13 13 13 13 14 14
29 29 29 30 29 29 29 31 32 32 31 31 30 26 24 21 18 17 17 15 13 14 14 14 14 13 13 12 12 12 13 14 14 14 13 13 13 13 13 13 14 14 15 15
30 30 30 29 28 28 29 30 32 33 33 32 30 26 23 20 17 16 15 13 13 14 14 13 13 13 14 13 12 12 13 13 14 13 12 12 12 13 13 14 15 15 15 15
30 30 30 29 29 28 29 30 31 33 33 31 29 28 24 21 18 16 14 14 13 13 14 14 14 14 14 13 13 13 13 13 13 12 13 13 13 13 13 14 14 14 14 14
32 32 31 30 30 30 30 30 31 32 32 31 30 29 25 23 20 18 16 15 14 13 14 14 13 14 13 13 14 14 14 14 13 13 14 14 13 14 14 14 14 14 14 14
34 33 32 31 31 32 32 31 31 32 32 32 32 29 26 24 23 21 18 17 16 16 16 14 14 14 15 15 14 14 14 14 14 14 14 14 14 15 16 16 16 15 15 16
33 33 33 32 32 33 30 30 31 31 31 31 30 29 27 26 24 23 22 19 18 17 17 16 16 15 14 14 14 15 15 15 15 14 15 15 16 16 17 17 16 16 16 16
33 33 33 33 34 34 32 31 30 31 31 31 30 29 28 26 26 23 22 21 18 17 17 16 16 15 14 14 15 16 16 16 16 16 16 16 17 17 17 17 17 17 17 17
33 33 34 34 35 35 33 31 30 30 31 30 30 30 29 28 27 25 23 22 20 20 19 16 15 16 16 16 16 16 16 16 17 17 17 18 18 18 18 17 17 18 17 18
33 33 34 35 35 35 33 32 31 32 30 29 30 30 30 29 28 25 23 21 20 19 17 16 16 16 16 17 17 16 16 16 17 17 18 18 18 19 18 18 18 19 19 19
33 33 34 34 36 35 34 33 34 32 30 29 29 29 29 28 28 26 24 22 20 18 18 18 17 17 17 17 17 17 17 17 17 18 18 18 18 18 18 18 19 19 19 20
33 33 34 34 33 32 33 34 33 32 30 29 29 30 29 28 26 26 24 23 20 20 19 17 17 16 16 16 17 18 18 18 18 18 18 18 19 19 18 18 18 19 19 19
32 32 32 33 32 31 30 32 32 32 30 28 28 28 26 26 25 24 23 22 21 20 19 18 17 16 17 17 18 19 19 18 18 19 19 19 19 18 18 18 19 19 20 20
32 31 32 32 31 30 30 29 28 27 29 29 27 27 26 24 24 23 23 21 20 19 19 18 17 17 18 18 19 19 19 18 19 19 19 19 19 18 19 19 20 20 20 21
31 30 30 30 30 29 29 28 27 26 26 26 25 24 22 21 22 22 22 20 20 20 20 19 19 19 19 19 19 19 19 19 19 19 19 19 19 19 20 20 20 21 21 22
Wind_Direction
226 226 225 226 226 223 224 224 221 219 216 222 233 242 253 268 273 276 282 292 290 281 286 290 301 300 305 308 297 296 297 289 271 265 260 241 234 235 239 246 252 261 268 267
226 224 223 224 224 223 223 224 223 219 216 222 232 244 257 262 269 273 276 283 283 281 283 281 283 289 297 300 291 284 286 289 283 276 266 243 238 239 243 250 257 261 267 267
226 222 222 223 223 223 223 224 221 216 215 223 232 240 247 255 264 267 270 276 280 276 281 282 283 287 290 294 296 278 280 285 286 279 268 248 240 239 245 254 263 261 262 263
221 219 221 221 222 223 223 221 219 214 216 221 231 241 247 254 261 264 266 269 273 277 283 284 282 283 288 288 291 280 269 276 281 280 275 257 247 244 250 258 264 266 264 264
219 220 222 222 221 221 220 217 216 216 218 223 228 239 247 251 255 258 265 270 272 277 283 283 280 276 279 285 289 280 272 277 279 274 274 262 256 254 256 262 268 272 270 266
216 218 220 219 218 218 216 214 215 217 220 223 227 238 245 250 253 257 266 274 276 277 282 285 277 270 269 274 278 274 273 273 274 269 267 265 255 256 262 266 272 272 269 265
216 218 219 218 217 216 214 213 214 217 222 225 228 238 245 249 252 257 264 272 271 274 280 278 273 270 268 270 275 272 266 265 267 265 264 263 261 262 266 270 273 273 271 267
217 217 219 218 218 218 216 215 217 221 225 228 229 237 243 245 247 251 256 261 265 270 274 269 270 270 267 269 274 268 265 263 261 261 264 263 261 263 267 272 274 275 270 266
217 216 217 218 217 218 217 217 220 223 227 228 228 235 240 242 244 249 256 261 262 264 263 262 263 267 266 265 273 273 271 265 260 260 264 263 261 264 266 270 274 276 271 268
215 214 214 215 216 216 216 217 220 222 224 226 228 233 240 243 247 251 253 257 258 264 259 256 256 257 261 265 271 274 270 267 264 262 266 268 268 268 267 270 273 274 273 273
215 214 212 214 215 215 215 216 220 222 224 228 232 234 238 246 249 247 248 252 258 257 257 257 254 253 257 260 266 268 269 266 268 267 268 272 272 268 268 272 275 275 274 273
213 213 212 215 214 215 217 217 220 222 225 228 233 236 238 246 249 247 244 248 253 260 266 261 256 252 253 258 264 266 268 268 267 266 268 273 273 270 268 271 274 275 275 273
211 212 211 212 213 215 216 216 218 221 225 229 232 236 238 245 247 247 244 246 252 258 264 265 257 249 253 257 263 270 273 272 268 264 260 267 269 271 272 271 272 275 276 274
213 214 214 214 214 215 217 216 217 220 224 228 231 234 236 242 246 246 246 250 254 257 264 267 261 255 253 254 261 269 275 276 269 267 264 266 270 274 278 277 275 276 276 273
214 216 216 214 213 215 218 218 218 221 224 229 230 233 236 239 241 244 245 248 255 259 264 266 261 256 255 257 263 267 273 278 274 268 267 270 273 275 280 283 280 278 275 271
215 216 217 216 214 215 218 218 219 221 224 228 229 229 233 234 238 241 246 254 257 260 265 262 253 256 253 257 262 265 271 277 276 272 270 271 273 275 278 280 279 279 278 275
216 217 218 217 215 218 219 219 221 222 224 227 229 230 232 235 240 245 252 254 259 260 259 254 250 250 252 255 260 265 270 275 276 274 271 274 276 276 278 278 279 277 277 274
216 219 220 218 216 220 221 221 221 223 225 226 229 230 234 238 242 245 248 254 256 256 257 257 251 252 252 254 261 265 270 273 275 275 276 277 280 281 281 278 277 276 275 272
218 219 220 219 218 221 221 220 221 222 224 226 227 229 234 237 241 244 249 254 258 257 258 256 249 250 253 257 264 268 272 275 275 276 278 279 280 281 280 276 275 274 273 272
216 217 218 218 219 221 222 222 223 225 225 226 228 230 235 240 243 248 252 255 259 260 258 257 251 250 255 259 264 270 274 276 277 277 278 279 279 281 279 277 276 273 273 273
215 216 218 217 218 220 220 222 224 226 226 226 229 231 234 239 243 248 252 253 256 257 253 254 253 253 255 258 264 271 274 276 278 278 278 279 278 279 277 277 276 274 274 275
216 218 218 218 219 219 219 222 224 225 224 225 227 230 234 239 242 245 249 251 252 252 254 253 253 254 258 260 264 269 273 277 279 279 279 279 278 278 277 277 275 274 274 275
218 217 218 220 222 222 222 222 222 223 223 225 227 230 233 235 240 246 249 248 250 251 255 256 255 257 260 263 266 271 274 277 279 279 280 281 279 278 277 277 276 274 273 272
219 220 220 221 221 223 221 219 221 223 224 227 228 230 233 234 239 243 243 246 248 249 253 258 259 260 264 268 270 273 276 278 279 280 280 280 279 277 277 278 278 277 272 272
220 220 222 222 222 224 224 223 223 225 226 230 231 233 234 232 235 239 242 242 244 249 253 257 261 264 266 268 270 272 276 279 280 280 279 278 278 279 281 281 281 278 276 278
220 221 222 222 223 223 224 227 228 224 225 227 229 229 230 230 232 236 239 240 244 249 253 257 261 265 268 269 270 272 275 277 280 281 279 278 278 280 282 280 280 279 280 280
Height
5856 5861 5865 5870 5874 5877 5879 5881 5884 5886 5887 5888 5889 5890 5891 5892 5893 5895 5896 5897 5897 5896 5896 5896 5895 5895 5894 5893 5892 5893 5893 5893 5893 5893 5893 5894 5895 5895 5896 5896 5897 5898 5898 5898
5851 5856 5862 5864 5867 5871 5874 5877 5880 5883 5884 5884 5885 5887 5888 5889 5890 5892 5893 5894 5894 5894 5895 5894 5894 5893 5893 5891 5891 5891 5890 5891 5891 5891 5891 5891 5892 5893 5894 5894 5895 5895 5895 5896
5846 5853 5855 5858 5861 5865 5869 5873 5877 5879 5880 5881 5882 5883 5885 5887 5888 5889 5890 5891 5891 5892 5892 5892 5892 5891 5891 5890 5890 5889 5889 5888 5889 5889 5889 5889 5890 5891 5891 5892 5892 5893 5893 5893
5839 5844 5848 5852 5856 5860 5864 5869 5872 5874 5875 5877 5879 5880 5882 5883 5884 5885 5886 5888 5889 5889 5890 5890 5890 5889 5888 5887 5887 5886 5886 5886 5887 5887 5887 5887 5888 5889 5889 5889 5890 5890 5890 5890
5835 5839 5842 5847 5852 5855 5860 5864 5866 5869 5870 5873 5874 5876 5879 5880 5880 5881 5883 5884 5886 5886 5887 5887 5887 5887 5886 5885 5885 5883 5884 5884 5884 5885 5885 5885 5885 5886 5887 5887 5887 5887 5887 5887
5829 5832 5836 5842 5847 5850 5855 5858 5861 5863 5865 5867 5870 5872 5874 5875 5877 5878 5879 5880 5881 5882 5883 5883 5884 5884 5883 5883 5882 5882 5881 5882 5882 5882 5883 5883 5883 5884 5884 5884 5884 5884 5884 5884
5822 5826 5831 5836 5840 5844 5848 5852 5855 5858 5860 5863 5867 5867 5870 5872 5873 5874 5876 5876 5877 5878 5879 5879 5880 5880 5880 5879 5878 5878 5879 5879 5879 5879 5880 5880 5881 5881 5881 5881 5881 5881 5881 5880
5815 5821 5826 5830 5835 5839 5843 5847 5850 5853 5856 5860 5862 5862 5866 5868 5870 5871 5872 5872 5873 5875 5876 5876 5876 5876 5876 5876 5875 5876 5876 5876 5876 5876 5877 5877 5878 5878 5878 5878 5878 5878 5877 5877
5810 5816 5821 5825 5830 5834 5837 5841 5846 5849 5852 5855 5857 5858 5861 5863 5866 5867 5868 5869 5870 5871 5872 5873 5873 5874 5873 5873 5873 5873 5873 5873 5874 5874 5874 5874 5874 5874 5875 5875 5875 5874 5874 5874
5805 5810 5815 5820 5824 5828 5833 5837 5840 5843 5846 5848 5852 5854 5857 5859 5861 5863 5865 5866 5867 5867 5868 5870 5870 5871 5871 5870 5870 5870 5870 5870 5871 5871 5871 5871 5871 5871 5871 5871 5871 5871 5871 5871
5799 5805 5809 5813 5817 5822 5827 5831 5834 5838 5841 5844 5847 5852 5853 5855 5857 5859 5861 5862 5862 5863 5864 5865 5866 5867 5867 5867 5867 5867 5867 5867 5867 5867 5867 5867 5867 5867 5868 5868 5868 5868 5867 5867
5794 5799 5803 5808 5813 5818 5821 5825 5829 5833 5836 5839 5842 5849 5849 5851 5853 5854 5856 5857 5858 5859 5860 5861 5862 5861 5863 5864 5864 5864 5864 5864 5864 5864 5864 5864 5864 5864 5864 5865 5864 5864 5864 5863
5788 5794 5799 5803 5810 5813 5816 5820 5824 5828 5831 5834 5837 5844 5845 5846 5848 5849 5851 5852 5854 5855 5856 5856 5857 5857 5858 5859 5860 5860 5860 5859 5860 5860 5860 5861 5860 5861 5861 5861 5861 5861 5860 5859
5784 5789 5794 5799 5803 5808 5811 5815 5818 5822 5825 5828 5832 5837 5840 5841 5843 5845 5847 5848 5849 5851 5852 5853 5853 5854 5854 5855 5856 5857 5857 5856 5855 5856 5856 5857 5857 5857 5857 5857 5856 5856 5856 5855
5780 5784 5789 5794 5798 5802 5805 5809 5813 5816 5820 5824 5828 5832 5835 5838 5840 5841 5843 5844 5845 5847 5848 5849 5849 5849 5850 5850 5852 5853 5854 5853 5853 5853 5853 5853 5853 5853 5853 5853 5853 5852 5852 5851
5775 5779 5784 5789 5793 5796 5799 5804 5808 5811 5815 5819 5823 5826 5830 5832 5835 5837 5839 5840 5842 5844 5845 5845 5845 5845 5846 5847 5849 5849 5850 5850 5850 5850 5850 5850 5850 5850 5849 5849 5849 5848 5848 5847
5769 5774 5779 5783 5787 5791 5795 5799 5802 5806 5810 5814 5817 5822 5825 5827 5831 5833 5834 5836 5838 5840 5840 5841 5842 5842 5843 5845 5845 5846 5846 5847 5847 5846 5846 5846 5846 5846 5845 5845 5844 5844 5843 5843
5765 5769 5773 5778 5783 5786 5793 5794 5797 5801 5805 5809 5813 5817 5820 5823 5826 5828 5830 5831 5833 5835 5837 5837 5838 5839 5839 5840 5841 5842 5842 5843 5843 5843 5842 5842 5842 5841 5841 5840 5839 5839 5839 5839
5760 5764 5768 5772 5776 5780 5785 5789 5792 5796 5800 5804 5808 5812 5815 5817 5820 5822 5825 5827 5829 5831 5832 5832 5833 5834 5835 5837 5837 5838 5838 5838 5838 5838 5838 5838 5837 5836 5836 5835 5835 5834 5834 5834
5754 5758 5763 5766 5770 5774 5781 5784 5787 5792 5794 5799 5803 5807 5810 5812 5815 5818 5820 5823 5824 5825 5826 5827 5828 5830 5831 5832 5833 5834 5834 5833 5833 5833 5833 5832 5832 5831 5831 5830 5830 5829 5829 5829
5748 5752 5756 5760 5763 5768 5775 5778 5782 5787 5791 5795 5798 5801 5805 5808 5811 5814 5815 5817 5819 5820 5821 5823 5825 5826 5827 5828 5829 5829 5829 5829 5828 5828 5827 5827 5826 5826 5825 5825 5824 5824 5823 5823
5742 5746 5750 5754 5758 5765 5769 5773 5777 5781 5786 5789 5792 5796 5799 5802 5805 5808 5810 5812 5814 5815 5816 5818 5819 5821 5822 5823 5824 5824 5824 5824 5823 5823 5822 5821 5821 5820 5820 5819 5819 5818 5818 5817
5736 5741 5745 5750 5755 5759 5762 5766 5771 5775 5780 5783 5787 5790 5794 5797 5799 5802 5804 5806 5809 5811 5812 5814 5815 5817 5817 5818 5819 5819 5819 5819 5818 5818 5817 5816 5815 5815 5814 5813 5813 5812 5812 5812
5731 5735 5739 5744 5748 5753 5757 5761 5765 5770 5774 5778 5781 5784 5788 5791 5794 5796 5798 5801 5803 5806 5808 5810 5812 5812 5813 5814 5814 5814 5814 5813 5813 5812 5812 5811 5810 5809 5808 5808 5807 5807 5806 5805
5726 5731 5734 5738 5743 5748 5752 5756 5760 5764 5769 5773 5776 5780 5783 5786 5790 5792 5795 5797 5799 5801 5803 5805 5807 5808 5808 5809 5809 5809 5809 5808 5808 5807 5806 5806 5805 5804 5804 5803 5802 5801 5800 5799
5722 5726 5730 5735 5740 5744 5749 5752 5755 5759 5763 5767 5771 5774 5777 5781 5784 5787 5790 5792 5795 5797 5799 5800 5802 5802 5803 5803 5804 5804 5804 5803 5803 5802 5801 5800 5800 5799 5798 5798 5797 5795 5794 5793